Kansas City International, MO

6:56 PM CST on December 12, 2017 (GMT -0600)
Kansas City International

Weather History for KMCI - February, 2014

Change the Weather History Date:

Friday, February 21, 2014

  Actual Average Record
Temperature  
Mean Temperature 42 °F 36 °F  
Max Temperature 57 °F 45 °F 75 °F (1935)
Min Temperature 26 °F 26 °F 0 °F (1939)
Degree Days  
Heating Degree Days 23 29  
Month to date heating degree days 865 686  
Since 1 July heating degree days 4309 3850  
Cooling Degree Days 0 0  
Month to date cooling degree days 0 0  
Year to date cooling degree days 0 0  
Moisture  
Dew Point 20 °F    
Average Humidity 47    
Maximum Humidity 69    
Minimum Humidity 24    
Precipitation  
Precipitation 0.00 in 0.06 in 0.78 in (1974)
Month to date precipitation 1.36 1.06  
Year to date precipitation 1.75 2.13  
Snow  
Snow 0.00 in 0.10 in 9.20 in (2013)
Month to date snowfall 11.3 4.3  
Since 1 July snowfall 22.6 15.1  
Snow Depth 0.00 in    
Sea Level Pressure  
Sea Level Pressure 29.87 in    
Wind  
Wind Speed 12 mph (WSW)    
Max Wind Speed 25 mph    
Max Gust Speed 32 mph    
Visibility 10 miles    
Events      
T = Trace of Precipitation, MM = Missing Value Source: NWS Daily Summary

Daily Weather History Graph

Daily Weather History Graph

Search for Another Location

Airport or City:

Trip Planner

Search our weather history database for the weather conditions in past years. The results will help you decide how hot, cold, wet, or windy it might be!

Date:

Astronomy

Feb. 21, 2014 Rise Set
Actual Time 7:02 AM CST 6:02 PM CST
Civil Twilight 6:35 AM CST 6:29 PM CST
Nautical Twilight 6:04 AM CST 7:01 PM CST
Astronomical Twilight 5:33 AM CST 7:32 PM CST
Moon No Moon Rise 10:30 AM CST (2/21)
Length of Visible Light 11h 54m
Length of Day
10h 59m
Waning Gibbous, 60% of the Moon is Illuminated
Feb 21
Waning Gibbous
Feb 22
Last Quarter
Mar 1
New
Mar 8
First Quarter
Mar 16
Full

Hourly Weather History & Observations

Time (CST) Temp. Windchill Dew Point Humidity Pressure Visibility Wind Dir Wind Speed Gust Speed Precip Events Conditions
12:53 AM 32.0 °F 20.5 °F 16.0 °F 52% 29.84 in 10.0 mi WNW 18.4 mph 27.6 mph N/A   Clear
1:53 AM 32.0 °F 21.6 °F 15.1 °F 50% 29.86 in 10.0 mi West 15.0 mph 26.5 mph N/A   Clear
2:53 AM 30.9 °F 20.7 °F 15.1 °F 52% 29.88 in 10.0 mi West 13.8 mph 24.2 mph N/A   Clear
3:53 AM 30.9 °F 21.2 °F 14.0 °F 50% 29.88 in 10.0 mi West 12.7 mph - N/A   Clear
4:53 AM 28.9 °F 20.4 °F 15.1 °F 56% 29.91 in 10.0 mi WSW 9.2 mph - N/A   Clear
5:53 AM 28.0 °F 18.6 °F 17.1 °F 63% 29.92 in 10.0 mi WSW 10.4 mph - N/A   Clear
6:53 AM 26.1 °F 17.6 °F 18.0 °F 71% 29.92 in 10.0 mi SW 8.1 mph - N/A   Partly Cloudy
7:53 AM 28.9 °F 22.8 °F 19.9 °F 69% 29.93 in 10.0 mi SW 5.8 mph - N/A   Clear
8:53 AM 34.0 °F 28.0 °F 21.0 °F 59% 29.91 in 10.0 mi SW 6.9 mph - N/A   Partly Cloudy
9:53 AM 39.9 °F 32.5 °F 21.9 °F 49% 29.90 in 10.0 mi SSW 12.7 mph - N/A   Mostly Cloudy
10:53 AM 43.0 °F 36.0 °F 21.0 °F 42% 29.89 in 10.0 mi SSW 13.8 mph 21.9 mph N/A   Mostly Cloudy
11:53 AM 46.0 °F 39.0 °F 21.0 °F 37% 29.86 in 10.0 mi SSW 17.3 mph - N/A   Mostly Cloudy
12:53 PM 51.1 °F - 23.0 °F 33% 29.81 in 10.0 mi WSW 17.3 mph 21.9 mph N/A   Mostly Cloudy
1:53 PM 55.0 °F - 19.9 °F 25% 29.78 in 10.0 mi SW 20.7 mph 29.9 mph N/A   Partly Cloudy
2:53 PM 55.9 °F - 19.9 °F 25% 29.79 in 10.0 mi WSW 21.9 mph 26.5 mph N/A   Partly Cloudy
3:53 PM 55.9 °F - 21.0 °F 26% 29.81 in 10.0 mi West 15.0 mph 29.9 mph N/A   Partly Cloudy
4:53 PM 54.0 °F - 21.0 °F 28% 29.82 in 10.0 mi West 18.4 mph 26.5 mph N/A   Partly Cloudy
5:53 PM 50.0 °F - 21.9 °F 33% 29.84 in 10.0 mi WNW 8.1 mph - N/A   Partly Cloudy
6:53 PM 46.9 °F - 21.9 °F 37% 29.87 in 10.0 mi WNW 4.6 mph - N/A   Partly Cloudy
7:53 PM 46.9 °F - 21.9 °F 37% 29.89 in 10.0 mi West 4.6 mph - N/A   Clear
8:53 PM 45.0 °F 42.6 °F 21.9 °F 40% 29.91 in 10.0 mi WSW 4.6 mph - N/A   Clear
9:53 PM 45.0 °F 43.5 °F 21.9 °F 40% 29.91 in 10.0 mi West 3.5 mph - N/A   Clear
10:53 PM 37.0 °F 32.4 °F 24.1 °F 59% 29.91 in 10.0 mi South 5.8 mph - N/A   Partly Cloudy
11:53 PM 36.0 °F 29.6 °F 23.0 °F 59% 29.91 in 10.0 mi South 8.1 mph - N/A   Mostly Cloudy